Location: Unspecified
(0.0000°N, 0.0000°E)
Time: 16:05:16
(UTC+00:00)

deb r/b Kosmos R-14 - Pass Details

Date: 25 September 2024
Orbit: 468 x 812 km, 55.9° (Epoch: 12 October)

Event Time Altitude Azimuth Distance (km) Brightness Sun altitude
Rises 19:15:00 0° 196° (SSW) 3,330 ? -20.9°
Reaches altitude 10° 19:17:39 10° 188° (S) 2,408 ? -21.6°
Enters shadow 19:22:01 35° 141° (SE) 1,287 ? -22.6°
